www.pogodaiklimat.ru

Погода и климат >> Архив погоды >> Доминиканская Республика >> Лас Америкас


ПОГОДА в Лас Америкас

  • Прогноз погоды в Лас Америкас
  • Монитор погоды в Лас Америкас

АРХИВ ПОГОДЫ в Лас Америкас

Время (UTC), дата Ветер
(напр.,м/с)
 
Видим.   Явления Облачность Т
(С)
Тd
(С)
f
(%)
Тe
(С)
Тes
(С)
Комфортность P
(гПа)
Po
(гПа)
Тmin
(С)
Tmax
(С)
R
(мм)
R24
(мм)
S
(см)
15 9.06 ЮВ 4 16 км 6/4 540 м
[Cb cap Ac trans]
+30.5 +25.6 75 +45 +51 опасность
перегрева
1017.1 1015.0
18 9.06 ЮВ 3 8000 м гроза без осадков 9/9 480 м
[Cb cap Ac trans Cs]
+28.5 +24.3 78 +40 +42 очень
душно
1016.5 1014.4 +22.8 +31.3
21 9.06 В 4 8000 м осадки на расстоянии {гроза} 9/8 480 м
[Cb cap Cs]
+26.2 +23.1 83 +35 +36 очень
душно
1015.9 1013.8
00 10.06 СВ 2 16 км {гроза} 8/5 480 м
[Cb cap Cs]
+25.0 +22.1 84 +32 +32 очень
душно
1016.9 1014.8 +22.8 +31.3
03 10.06 СВ 3 16 км 9/5 540 м
[Cu med, cong Cs]
+24.6 +22.5 88 +32 +32 очень
душно
1017.6 1015.5
06 10.06 СВ 2 16 км 8/5 540 м
[Cu med, cong Cs]
+24.3 +22.7 91 +32 +32 очень
душно
1016.5 1014.4
09 10.06 СВ 2 16 км 8/5 540 м
[Cu med, cong Ac trans Cs]
+23.5 +22.3 93 +31 +31 очень
душно
1015.4 1013.3
12 10.06 СВ 2 16 км 8/5 540 м
[Cu med, cong Ac trans Cs]
+26.2 +23.5 85 +36 +37 очень
душно
1017.0 1014.9 +23.8 +31.3
15 10.06 16 км {гроза} н/о +30.4 +24.8 72 +43 +55 опасность
перегрева
1017.2 1015.1
18 10.06 ЮВ 2 8000 м осадки на расстоянии 8/5 480 м
[Cb cap Ac trans Cs]
+31.4 +23.3 62 +42 +49 опасность
перегрева
1016.2 1014.1 +23.8 +31.8
21 10.06 ЮВ 4 16 км 8/5 480 м
[Cb cap Cs]
+29.7 +24.4 73 +42 +43 опасность
перегрева
1015.6 1013.5
00 11.06 В 3 16 км 8/5 480 м
[Cb cap Cs]
+27.3 +24.2 83 +38 +38 очень
душно
1016.2 1014.1 +23.8 +31.8
03 11.06 ЮВ 2 16 км 8/4 540 м
[Cu med, cong Cs]
+25.4 +22.9 86 +34 +34 очень
душно
1017.5 1015.4
06 11.06 ЮВ 2 16 км 6/4 540 м
[Cu med, cong Cs]
+24.2 +22.6 91 +32 +32 очень
душно
1016.5 1014.4 +23.8 +31.8
09 11.06 штиль 0 12 км пыль {туман} 1/1 540 м
[Cu med, cong]
+24.2 +23.1 94 +32 +32 очень
душно
1015.5 1013.4
12 11.06 СВ 2 16 км 4/4 540 м
[Cu med, cong]
+17.2 +23.8 100 +23.6 +31.8
15 11.06 ЮВ 3 16 км 4/4 600 м
[Cu med, cong]
+31.0 +24.0 66 +43 +52 опасность
перегрева
1018.2 1016.1
18 11.06 ЮВ 4 12 км пыль {туман} 3/3 660 м
[Cu med, cong]
+32.0 +23.3 60 +43 +52 опасность
перегрева
1017.0 1015.0 +23.6 +32.0
21 11.06 ЮВ 3 12 км пыль {туман} 3/3 660 м
[Cu med, cong]
+30.2 +22.6 64 +40 +43 очень
душно
1015.3 1013.2
00 12.06 ЮВ 3 12 км пыль {туман} 3/3 600 м
[Cu med, cong]
+27.0 +23.1 79 +36 +36 очень
душно
1016.5 1014.4 +23.6 +32.0
03 12.06 ЮВ 3 12 км пыль {туман} 3/3 540 м
[Cu med, cong]
+26.3 +23.2 83 +35 +35 очень
душно
1017.6 1015.5
06 12.06 СВ 2 12 км пыль {туман} 1/1 540 м
[Cu med, cong]
+24.0 +22.4 91 +31 +31 очень
душно
1016.5 1014.4 +23.6 +32.0
09 12.06 СВ 2 12 км пыль {туман} 1/1 540 м
[Cu med, cong]
+23.3 +22.3 94 +32 +32 очень
душно
1016.0 1013.9
12 12.06 СВ 3 12 км пыль {туман} 3/3 480 м
[Cu med, cong]
+26.0 +22.3 80 +34 +36 очень
душно
1017.4 1015.3 +23.1 +32.0
15 12.06 ЮВ 3 16 км пыль {туман} 4/4 660 м
[Cu med, cong]
+30.2 +23.7 68 +41 +50 опасность
перегрева
1017.6 1015.5
18 12.06 ЮВ 4 16 км {дождь, туман} 4/4 660 м
[Cu Sc]
+31.8 +24.9 67 +45 +53 опасность
перегрева
1016.5 1014.5 +23.1 +32.5 1
21 12.06 ЮВ 4 16 км 4/4 700 м
[Cu med, cong]
+30.6 +23.5 66 +41 +44 опасность
перегрева
1015.2 1013.1
00 13.06 ЮВ 2 16 км 3/3 600 м
[Cu med, cong]
+28.0 +22.9 74 +37 +37 очень
душно
1016.4 1014.3 +32.1 +32.7
03 13.06 СВ 3 16 км 4/4 540 м
[Cu med, cong]
+25.4 +21.5 79 +32 +32 очень
душно
1018.2 1016.1
06 13.06 СВ 3 16 км 5/5 540 м
[Cu med, cong]
+24.4 +21.3 83 +31 +31 очень
душно
1017.5 1015.4 +23.1 +32.7
09 13.06 В 3 16 км 6/6 540 м
[Cu Sc]
+24.0 +22.0 89 +31 +31 очень
душно
1016.8 1014.7
12 13.06 СВ 4 16 км 4/3 540 м
[Cu med, cong Ci fib]
+26.5 +23.4 83 +36 +38 очень
душно
1017.9 1015.8 +23.5 +32.7
15 13.06 ЮВ 5 16 км 5/4 600 м
[Cu med, cong Ci fib]
+30.4 +23.3 66 +41 +47 опасность
перегрева
1018.2 1016.1
18 13.06 Ю 6 16 км 5/4 660 м
[Cu med, cong Ci fib]
+32.2 +21.4 53 +40 +45 очень
душно
1016.5 1014.5 +23.5 +33.0
00 14.06 ЮВ 4 16 км 6/5 600 м
[Cb cap Ci fib]
+27.0 +23.2 80 +36 +36 очень
душно
1016.2 1014.1 +23.5 +33.0
03 14.06 В 2 16 км 4/4 540 м
[Cu med, cong Ci]
+26.0 +23.0 84 +35 +35 очень
душно
1015.9 1013.8
06 14.06 СВ 2 16 км 4/3 480 м
[Cu med, cong Ci fib]
+24.4 +22.4 89 +32 +32 очень
душно
1016.9 1014.8 +23.5 +33.0
09 14.06 СВ 2 16 км зарница 5/4 300 м
[Cu Sc As trans Cs]
+23.8 +22.4 92 +31 +31 очень
душно
1016.8 1014.7
12 14.06 В 4 16 км {гроза} 4/3 540 м
[Cu med, cong Ci fib]
+27.0 +24.3 85 +38 +40 очень
душно
1018.1 1016.0 +23.5 +33.0
15 14.06 ЮВ 5 16 км 5/4 600 м
[Cu med, cong Ci fib]
+30.8 +22.2 60 +40 +45 очень
душно
1017.8 1015.7
18 14.06 Ю 4 16 км 5/4 660 м
[Cu med, cong Ci fib]
+31.2 +21.1 55 +39 +46 очень
душно
1015.9 1013.8 +23.5 +33.0
21 14.06 ЮВ 5 16 км 5/5 600 м
[Cb cap Ci fib]
+30.5 +22.4 62 +40 +41 очень
душно
1015.0 1012.9
00 15.06 ЮВ 3 16 км 4/4 540 м
[Cb cap Ci fib]
+28.0 +22.9 74 +37 +37 очень
душно
1015.8 1013.7 +23.5 +33.0
03 15.06 СВ 3 16 км 4/4 540 м
[Cu med, cong Ci fib]
+26.2 +22.5 80 +34 +34 очень
душно
1017.2 1015.1
06 15.06 СВ 3 16 км 4/4 480 м
[Cb cap Cs]
+24.4 +21.9 86 +31 +31 очень
душно
1016.6 1014.5 +23.5 +33.0
09 15.06 СВ 2 16 км 1/1 480 м
[Cu med, cong]
+23.0 +21.1 89 +31 +31 очень
душно
1016.3 1014.2
12 15.06 СВ 2 16 км 6/3 540 м
[Cu med, cong Ac trans]
+26.0 +22.3 80 +34 +36 очень
душно
1017.4 1015.3 +33.0
15 15.06 ЮВ 2 16 км 5/4 600 м
[Cu med, cong Ci fib]
+30.2 +23.2 66 +40 +51 опасность
солнечного
удара
1017.9 1015.8
18 15.06 Ю 4 16 км 6/5 600 м
[Cb cap Ci fib]
+31.4 +21.6 56 +40 +46 очень
душно
1016.1 1014.0 +23.0 +33.0
21 15.06 ЮВ 2 16 км 8/5 540 м
[Cb cap Cs]
+29.2 +22.5 67 +38 +41 очень
душно
1015.1 1013.0
00 16.06 ЮВ 2 16 км 5/5 540 м
[Cb cap Cs]
+28.3 +24.1 78 +39 +39 очень
душно
1016.2 1014.1 +23.0 +33.0
03 16.06 СВ 2 16 км 6/6 480 м
[Cb cap]
+25.6 +23.5 88 +35 +35 очень
душно
1017.2 1015.1
06 16.06 СВ 2 16 км 4/4 540 м
[Sc]
+24.8 +23.2 91 +33 +33 очень
душно
1016.4 1014.3 +23.0 +33.0
09 16.06 СВ 2 16 км 5/5 480 м
[Cb cap]
+23.8 +21.5 87 +30 +30 очень
душно
1015.8 1013.7
12 16.06 СВ 2 16 км 3/1 480 м
[Cu med, cong Ci]
+27.4 +23.6 80 +37 +41 очень
душно
1017.0 1014.9 +24.8 +33.0

 

Местоположение метеостанции Лас Америкас (Доминиканская Республика): широта 18.43 долгота -69.66 высота над уровнем моря 18 м.

В архиве по умолчанию представлена погода в Лас Америкас за последнюю неделю. Архивные данные за месяц целиком и за предыдущие месяцы, начиная с января 2011 года, Вы можете получить, выбрав интересующий диапазон дат из раскрывающегося списка и нажав кнопку "Ввод!".


*Определитесь, кто Вы:
робот инопланетянин человек

Внимание! Время в таблицах - всемирное. Для получения местного времени необходимо прибавить поправку, которая равна -4 ч.

Смотрите также архив погоды в соседних городах и на ближайших метеорологических станциях:

Погода в Санто-Доминго (Доминиканская Республика) (23 км)
Погода в Сабана де ла Мар (Доминиканская Республика) (75 км)
Погода в Ла Романа аэропорту (Доминиканская Республика) (78 км)
Погода в Пунта-Кане (Доминиканская Республика) (138 км)
Погода в Бараоне (Доминиканская Республика) (154 км)
Погода в Сантьяго (Доминиканская Республика) (158 км)
Погода в Пуэрто-Плате (Доминиканская Республика) (174 км)
Погода в Шарлотта-Амалии (Виргинские Острова) (496 км)
Погода в Пунта-де-Маиси (Куба) (513 км)
Погода Королевы Беатрикс аэропорту (Аруба) (661 км)

Пояснения к столбцам:

Ветер - указаны скорость ветра в м/с - средняя за 10 мин, порывы в срок и между сроками (в фигурных скобках) и направление, откуда дует ветер: С - северный, СВ - северо-восточный, В - восточный, ЮВ - юго-восточный, Ю - южный, ЮЗ - юго-западный, З - западный, СЗ - северо-западный.
Видимость - горизонтальная дальность видимости в метрах или километрах. При видимости от 1 до 10 км при отсутствии осадков обычно наблюдается дымка, при ухудшении видимости до 1 км и менее - туман. В сухую погоду видимость может ухудшаться дымом, пылью или мглою.
Явления - указаны атмосферные явления, наблюдавшиеся в срок или в последний час перед сроком; фигурными скобками обозначены явления, наблюдавшиеся между сроками (за 1-3 часа до срока); квадратными скобками обозначены град или гололедные отложения с указанием их диаметра в мм.
Облачность - указаны через наклонную черту общая и нижняя облачность в баллах и высота нижней границы облаков в метрах; квадратными скобками обозначены формы облаков: Ci - перистые, Cs - перисто-слоистые, Cc - перисто-кучевые, Ac - высококучевые, As - высокослоистые, Sc - слоисто-кучевые, Ns - слоисто-дождевые, Cu - кучевые, Cb - кучево-дождевые. Подробнее классификацию облаков см. в Атласе облаков (PDF).
T - Температура воздуха - температура, измеренная на высоте 2 м над землей.
Td - Температура точки росы - температура, при понижении до которой содержащийся в воздухе водяной пар достигнет насыщения.
f - Относительная влажность воздуха - влажноcть воздуха, измеренная на высоте 2 м над землей.
Te - Эффективная температура - температура, которую ощущает одетый по сезону человек в тени. Характеристика душности погоды. При расчете учитывается влияние влажности воздуха и скорости ветра на теплоощущения человека.
Tes - Эффективная температура на солнце - температура, которую ощущает человек, с поправкой на солнечный нагрев. Характеристика знойности погоды. Зависит от высоты солнца над горизонтом, облачности и скорости ветра. Ночью, в пасмурную погоду, а также при ветре 12 м/с и более поправка равна нулю.
P - Атмосферное давление - приведенное к уровню моря атмосферное давление.
Po - Атмосферное давление - измеренное на уровне метеостанции атмосферное давление.
Tmin - Минимальная температура - минимум температуры воздуха на высоте 2 м над землей.
Tmax - Максимальная температура - максимум температуры воздуха на высоте 2 м над землей.
R - Количество осадков - Количество выпавших осадков за период времени, мм. При наведении курсора мыши на число - период времени, за который выпало указанное количество осадков.
R24 - Количество осадков - Количество выпавших осадков за 24 часа, мм.
S - Снежный покров - Высота снежного покрова, см. При наведении курсора мыши на число - состояние снежного покрова и степень покрытия местности в баллах.